• Processing (Info)

  • MPEC 1994-T05 : 1994 SE

    The following Minor Planet Electronic Circular may be linked-to from your own Web pages, but must not otherwise be redistributed electronically.

    A form allowing access to any MPEC is at the bottom of this page.


    Read MPEC 1994-T04 Read MPEC 1994-T06


    M.P.E.C. 1994-T05                                Issued 1994 Oct. 8, 16:34 UT
    
         The Minor Planet Electronic Circulars contain information on unusual
             minor planets and routine data on comets.  They are published
       on behalf of Commission 20 of the International Astronomical Union by the
              Minor Planet Center, Smithsonian Astrophysical Observatory,
                              Cambridge, MA 02138, U.S.A.
    
              MARSDEN@CFA or WILLIAMS@CFA (.HARVARD.EDU, .SPAN or .BITNET)
    
                                        1994 SE
    
    Discovered 1994 Sept. 25 by R. H. McNaught at Siding Spring.
    
    Available observations:
         J94S00E* A1994 09 25.39088 21 08 04.28 -37 29 30.5          17   V      413
         J94S00E  A1994 09 25.43255 21 08 08.82 -37 28 40.1                      413
         J94S00E   1994 10 03.54584 21 24 31.42 -34 35 06.1                      413
         J94S00E   1994 10 04.51378 21 26 32.92 -34 13 13.5                      413
         J94S00E   1994 10 05.44943 21 28 31.35 -33 51 51.6                      413
    
    Observer details:
    413 Siding Spring Observatory.  Observers C. P. Cass, R. H. McNaught.
        Measurer R. H. McNaught.  U.K. Schmidt, Uppsala Southern Schmidt.
    
    Orbital elements:
    1994 SE
    Epoch 1994 Sept. 25.0 TT = JDT 2449620.5                Williams
    M   3.29179              (2000.0)            P               Q
    n   0.28574878     Peri.  273.60129     +0.90350527     +0.41050821
    a   2.2828627      Node    62.19593     -0.31671715     +0.83309584
    e   0.3958707      Incl.    8.00168     -0.28873598     +0.37072136
    P   3.45           H    16.0          G   0.15
    From 5 observations 1994 Sept. 25-Oct. 5.
    
    Ephemeris:
    1994 SE                  a,e,i = 2.28, 0.40, 8                   q = 1.3791
    Date    TT    R. A. (2000) Decl.     Delta      r     Elong.  Phase     V
    1994 10 05    21 27.58   -34 02.2    0.591    1.393   120.0    38.4    17.1
    1994 10 15    21 49.08   -30 03.9    0.645    1.409   116.6    39.3    17.4
    1994 10 25    22 11.07   -25 52.8    0.708    1.430   113.3    39.7    17.6
    1994 11 04    22 33.07   -21 37.1    0.780    1.457   110.0    39.8    17.9
    1994 11 14    22 54.92   -17 23.2    0.863    1.488   106.6    39.6    18.1
    1994 11 24    23 16.48   -13 16.3    0.956    1.522   103.1    39.2    18.4
    1994 12 04    23 37.74   -09 19.3    1.058    1.560    99.5    38.5    18.6
    1994 12 14    23 58.77   -05 34.0    1.170    1.601    95.6    37.7    18.9
    1994 12 24    00 19.59   -02 01.3    1.289    1.645    91.7    36.7    19.1
    1995 01 03    00 40.26   +01 18.4    1.417    1.690    87.6    35.6    19.4
    1995 01 13    01 00.86   +04 25.3    1.550    1.736    83.3    34.2    19.6
    1995 01 23    01 21.42   +07 19.3    1.688    1.784    79.0    32.8    19.8
    1995 02 02    01 41.99   +10 00.8    1.830    1.832    74.5    31.2    20.0
    1995 02 12    02 02.62   +12 29.8    1.974    1.881    70.0    29.5    20.1
    1995 02 22    02 23.31   +14 46.4    2.119    1.930    65.4    27.8    20.3
    1995 03 04    02 44.09   +16 50.8    2.265    1.979    60.8    25.9    20.4
    1995 03 14    03 04.96   +18 43.0    2.408    2.028    56.1    24.0    20.6
    
    Gareth V. Williams                                            M.P.E.C. 1994-T05
    

    Read MPEC 1994-T04 Read MPEC 1994-T06


    MPEC number:

    Enter an MPEC number in one of the following forms:

    • 1997-B01 (the full form)
    • J97B01 (the packed version of the full form)
    • B01 (the abbreviated form)